Location: Home
(42.5358°N, 72.7383°W)
Time: 00:20:06
(UTC-04:00)

X-37B - Visible Passes

Search period start: 17 October 2021 00:00
Search period end: 27 October 2021 00:00
Orbit: 385 x 389 km, 45.0° (Epoch: 13 October)

Date Brightness Start Highest point End Pass type
(mag) Time Alt. Az. Time Alt. Az. Time Alt. Az.
17 Oct 0.6 18:43:12 10° WSW 18:46:22 84° SSE 18:49:13 12° ENE visible
17 Oct 3.0 20:20:03 10° W 20:21:30 24° WNW 20:21:30 24° WNW visible
18 Oct 0.9 19:21:34 10° W 19:24:43 55° N 19:25:43 36° NE visible
19 Oct 2.0 20:00:01 10° WNW 20:02:12 37° NW 20:02:12 37° NW visible
20 Oct 1.0 19:01:34 10° WNW 19:04:40 51° N 19:06:23 23° ENE visible
20 Oct 4.0 20:38:18 10° WNW 20:38:40 13° WNW 20:38:40 13° WNW visible
21 Oct 0.8 19:39:55 10° WNW 19:42:53 62° NNW 19:42:53 62° NNW visible
22 Oct 0.9 18:41:32 10° WNW 18:44:39 53° N 18:47:07 15° E visible
22 Oct 3.3 20:18:12 10° WNW 20:19:24 21° W 20:19:24 21° W visible
23 Oct 0.5 19:19:49 10° WNW 19:23:01 88° NNE 19:23:42 51° ESE visible
24 Oct 0.7 18:21:26 10° WNW 18:24:37 64° NNE 18:27:46 10° E visible
24 Oct 2.4 19:58:12 10° W 20:00:22 30° WSW 20:00:22 30° WSW visible
25 Oct 1.0 18:59:44 10° WNW 19:02:52 60° SSW 19:04:50 20° SE visible
26 Oct 2.7 19:38:25 10° W 19:40:54 21° SW 19:41:43 19° S visible
